DW8248 Weather Reports


time (UTC)temp
C
wind
direction
speed
KPH
gust
KPH
rain 1hr
cm
rain 24hr
cm
rain mn
cm
humidity
%
barometer
mb
20260503225354 23 22 12.9 27.4 0.00 0.08 0.08 71 1015.1
20260503222131 23 49 11.3 20.9 0.00 0.08 0.08 70 1015.3
20260503221058 23 30 9.7 24.1 0.00 0.08 0.08 69 1015.4
20260503220114 23 22 11.3 24.1 0.00 0.08 0.08 69 1015.3
20260503215116 23 69 9.7 19.3 0.00 0.08 0.08 68 1015.2
20260503214107 23 26 9.7 22.5 0.00 0.08 0.08 68 1015.4
20260503213129 24 42 11.3 22.5 0.00 0.08 0.08 67 1015.2
20260503212108 24 51 11.3 22.5 0.00 0.08 0.08 67 1015.2
20260503211125 24 27 11.3 24.1 0.00 0.08 0.08 69 1015.3
20260503210126 24 55 11.3 24.1 0.00 0.08 0.08 68 1015.3
20260503205131 24 46 9.7 22.5 0.00 0.08 0.08 69 1015.4
20260503204113 23 26 12.9 25.7 0.00 0.08 0.08 69 1015.6
20260503203131 23 43 12.9 25.7 0.00 0.08 0.08 69 1015.6
20260503200950 23 32 9.7 25.7 0.00 0.08 0.08 68 1015.5
20260503195942 23 38 9.7 24.1 0.00 0.08 0.08 70 1015.5
20260503194915 23 59 11.3 24.1 0.00 0.08 0.08 69 1015.5
20260503193849 23 45 9.7 22.5 0.00 0.08 0.08 69 1015.6
20260503192815 23 48 9.7 19.3 0.00 0.08 0.08 69 1015.8
20260503191738 23 65 9.7 19.3 0.00 0.08 0.08 69 1015.9
20260503190705 23 32 9.7 20.9 0.00 0.08 0.08 69 1016.2
20260503185711 23 27 11.3 22.5 0.00 0.08 0.08 70 1016.3
20260503183534 23 18 14.5 24.1 0.00 0.08 0.08 70 1016.7
20260503182529 23 44 11.3 22.5 0.00 0.08 0.08 70 1016.9
20260503181459 23 31 9.7 20.9 0.00 0.08 0.08 69 1016.8
20260503180444 23 65 9.7 20.9 0.00 0.08 0.08 70 1017.1
20260503173217 23 355 11.3 27.4 0.00 0.08 0.08 69 1017.1
20260503172212 23 17 11.3 27.4 0.00 0.08 0.08 70 1017.0
20260503171216 23 49 11.3 20.9 0.00 0.08 0.08 69 1016.9
20260503170220 23 46 12.9 22.5 0.00 0.08 0.08 69 1017.0
20260503130629 22 31 17.7 30.6 0.00 0.05 0.05 73 1015.8
20260503110423 20 41 12.9 22.5 0.00 0.05 0.05 84 1014.9
20260503090233 21 330 11.3 17.7 0.20 0.05 0.05 83 1014.0
20260503072812 21 344 14.5 24.1 0.00 0.00 0.00 84 1013.5
20260503071822 21 343 16.1 25.7 0.00 0.00 0.00 84 1013.3
20260503070835 21 342 14.5 27.4 0.00 0.00 0.00 84 1013.4
20260503054348 23 290 19.3 22.5 0.00 0.00 0.00 80 1013.6
20260503053342 23 275 19.3 25.7 0.00 0.00 0.00 80 1013.5
20260503052321 23 281 19.3 25.7 0.00 0.00 0.00 79 1013.5
20260503051334 23 281 17.7 22.5 0.00 0.00 0.00 78 1013.6
20260503050324 23 281 17.7 24.1 0.00 0.00 0.00 77 1013.6
20260503045331 23 284 19.3 25.7 0.00 0.00 0.00 77 1013.3
20260503044344 23 265 20.9 25.7 0.00 0.00 0.00 77 1013.4
20260503043351 23 263 19.3 24.1 0.00 0.00 0.00 78 1013.2
20260503042404 23 272 17.7 24.1 0.00 0.00 0.00 79 1012.9
20260503041402 23 267 17.7 22.5 0.00 0.00 0.00 80 1013.1
20260503035254 23 272 19.3 25.7 0.00 0.00 0.00 80 1013.3
20260503034231 23 270 19.3 25.7 0.00 0.00 0.00 79 1013.0
20260503032133 23 283 19.3 25.7 0.00 0.00 0.00 78 1012.7
20260503031123 23 284 17.7 24.1 0.00 0.00 0.00 79 1012.4
20260503023917 24 293 17.7 29.0 0.00 0.00 0.00 79 1012.1
20260503022928 24 308 22.5 29.0 0.00 0.00 0.00 79 1012.1
20260503021935 24 305 20.9 27.4 0.00 0.00 0.00 80 1011.9
20260503020919 25 313 17.7 22.5 0.00 0.00 0.00 78 1011.6
20260503014811 25 275 14.5 20.9 0.00 0.00 0.00 76 1011.1
20260503013833 25 284 14.5 20.9 0.00 0.00 0.00 74 1011.1
20260503012806 25 265 6.4 12.9 0.00 0.00 0.00 73 1010.0
20260503011759 25 225 8.0 22.5 0.00 0.00 0.00 73 1009.8
20260503010736 25 220 17.7 32.2 0.00 0.00 0.00 73 1010.2
20260503005729 25 205 24.1 32.2 0.00 0.00 0.00 73 1010.3
20260503004735 25 198 20.9 30.6 0.00 0.00 0.00 72 1010.2
20260503003712 25 215 19.3 29.0 0.00 0.00 0.00 72 1010.1
20260503002637 25 200 9.7 19.3 0.00 0.00 0.00 71 1009.8
20260503001640 25 247 12.9 25.7 0.00 0.00 0.00 71 1009.7
20260503000638 25 219 20.9 32.2 0.00 0.00 0.00 71 1010.6
20260502235632 25 239 24.1 32.2 0.00 0.00 0.00 71 1011.0
20260502234617 25 242 24.1 32.2 0.00 0.00 0.00 72 1011.0
20260502233606 25 271 27.4 35.4 0.00 0.00 0.00 72 1010.8
20260502232552 25 265 24.1 35.4 0.00 0.00 0.00 71 1011.0
20260502231605 25 249 25.7 35.4 0.00 0.00 0.00 70 1010.6